SCP
1 0 0 0 0 0 0 0 0 1 1 3 6 8 10 9 5 3 3 3 4 5 7 8 7 7 7 7 7 6 6 6 5 4 3 4 4 3 3 3 3 3 3 4
1 1 0 0 0 0 0 0 1 1 2 4 7 8 8 6 4 3 3 4 4 6 8 8 7 6 6 6 6 6 6 6 6 5 4 5 4 3 2 2 3 3 3 3
1 1 0 0 1 1 1 1 1 2 4 7 9 9 6 4 3 3 3 4 5 7 9 9 8 6 5 5 5 4 4 4 4 4 5 5 5 4 3 2 3 3 2 2
1 1 1 1 1 1 1 1 1 2 5 8 9 8 6 4 3 3 4 6 7 8 9 9 9 7 6 5 4 3 2 2 2 3 4 5 5 4 3 3 3 3 2 2
1 1 1 1 2 2 2 3 3 4 6 8 9 8 7 5 4 5 6 8 8 8 8 9 9 8 7 5 4 3 3 2 2 3 3 3 3 3 3 3 3 2 2 2
1 1 1 1 2 2 4 5 4 5 6 8 9 8 7 6 6 6 7 8 7 7 8 10 9 8 7 6 4 3 3 3 3 3 3 3 3 3 3 3 3 2 2 2
1 1 1 1 1 2 4 5 4 4 6 9 8 7 7 7 6 6 6 6 5 6 9 10 9 7 6 5 4 3 3 3 4 4 3 3 3 3 3 3 3 2 2 2
2 2 2 3 3 4 4 4 4 4 5 7 7 6 6 5 5 4 5 4 4 7 9 9 7 6 5 5 4 3 3 3 3 3 2 2 2 3 3 2 2 2 2 2
3 3 4 5 5 5 5 4 4 4 5 6 5 5 4 3 3 3 3 3 4 6 8 8 6 6 5 5 4 3 3 2 2 2 1 1 2 2 2 1 1 2 2 2
3 3 4 4 5 4 4 4 4 4 4 4 4 3 2 2 2 2 2 2 4 6 7 6 5 5 5 5 4 3 2 2 1 1 1 1 1 1 1 1 1 2 2 2
2 2 2 2 3 3 2 2 2 2 3 3 3 2 2 1 1 1 1 1 3 6 6 4 4 5 5 5 4 3 2 2 1 1 1 1 1 1 1 1 1 2 2 2
3 3 2 2 2 2 2 2 2 2 2 2 2 2 2 1 1 1 2 2 3 5 4 3 3 4 4 4 3 3 2 2 2 2 2 1 1 1 1 1 1 1 1 2
5 4 3 2 2 2 2 1 1 2 2 2 2 2 2 2 2 2 2 2 2 3 3 2 3 4 4 3 3 3 2 2 2 2 2 2 2 1 1 1 1 1 1 1
5 4 3 3 2 2 2 1 1 1 2 2 2 2 2 2 2 2 2 2 2 2 2 2 3 3 3 3 3 3 3 3 3 3 3 2 2 2 2 2 1 1 0 0
4 3 3 3 2 2 2 2 1 1 2 2 2 2 2 2 2 2 2 2 2 2 3 2 3 3 3 3 3 3 3 3 3 4 3 3 2 2 2 2 1 1 1 0
2 3 3 3 3 3 2 2 2 2 2 3 3 3 3 3 3 4 3 2 2 2 3 3 3 3 3 3 3 4 4 4 3 3 3 2 2 2 1 1 1 1 1 1
1 1 2 2 2 2 2 3 2 2 3 4 4 4 5 5 4 4 3 2 2 2 2 2 3 3 3 3 4 4 4 3 3 2 2 2 1 1 1 1 1 1 1 1
0 0 1 1 1 1 2 2 2 3 3 4 4 4 5 4 3 2 2 2 2 2 2 3 3 4 4 4 4 4 3 3 2 2 2 1 1 1 1 1 1 1 1 1
0 0 0 0 0 0 1 1 1 2 2 3 3 3 2 2 2 1 1 2 2 3 4 4 5 5 4 3 3 2 2 2 2 3 3 2 1 1 1 1 1 1 1 1
0 0 0 0 0 0 0 0 0 1 1 1 2 1 1 1 1 1 1 1 1 3 4 5 5 5 3 2 1 1 1 2 2 2 3 2 2 1 1 1 1 1 1 1
0 0 0 0 0 0 0 0 0 0 0 1 1 1 1 1 1 1 1 1 1 1 3 3 4 3 2 1 1 1 1 1 1 2 2 2 2 2 1 1 2 2 1 1
1 1 0 0 0 0 0 0 0 0 0 0 1 1 1 1 1 1 1 1 0 1 1 1 2 1 1 0 1 1 1 1 1 1 2 2 3 3 2 2 2 2 2 1
1 1 0 0 0 0 0 0 0 0 0 1 1 1 1 1 1 1 1 0 0 0 0 0 0 0 0 0 1 1 0 1 1 1 2 2 2 2 2 2 2 2 2 2
2 1 1 0 0 0 0 0 0 0 0 0 0 0 1 1 0 0 0 0 0 0 0 0 0 0 0 0 0 0 0 1 1 1 2 2 2 1 2 2 2 2 2 2
2 1 1 1 0 0 0 0 0 0 0 0 0 0 0 0 0 0 0 0 0 0 0 0 0 0 0 0 0 0 1 1 1 1 1 1 1 1 1 1 1 1 2 2
1 1 1 1 0 0 0 0 0 0 0 0 0 0 0 0 0 0 0 0 0 0 0 0 0 0 0 0 0 0 1 1 1 0 0 0 0 0 0 1 1 1 1 1
1 1 1 1 0 0 0 0 0 0 0 0 0 0 0 0 0 0 0 0 0 0 0 0 0 0 0 0 1 0 0 1 0 0 0 0 0 0 0 0 0 0 1 1
Wind_Speed
15 16 14 14 15 14 13 12 11 9 8 4 3 3 2 3 3 4 4 4 4 4 4 4 3 3 2 2 2 2 2 1 2 2 2 1 1 1 2 2 3 3 4 4
15 16 16 15 15 14 14 13 11 8 5 0 1 3 3 4 4 4 4 4 5 4 5 4 3 3 2 2 2 2 1 1 1 1 1 1 1 2 2 2 3 3 3 4
13 15 16 15 13 12 10 8 8 6 3 1 2 2 2 2 3 4 5 5 5 4 4 4 3 2 2 1 2 2 1 1 1 1 1 1 2 2 2 2 3 3 4 4
12 14 16 9 7 8 8 3 2 1 2 3 4 4 5 4 4 4 4 5 4 4 5 4 3 2 1 1 2 2 1 1 1 1 1 1 2 2 2 2 3 3 4 4
9 11 11 8 6 6 5 2 2 2 3 4 5 4 4 5 5 4 4 5 4 4 4 4 3 2 1 1 1 1 1 1 1 1 1 2 2 2 2 2 3 4 4 4
10 11 10 5 6 8 6 1 5 5 4 4 3 1 2 5 4 4 5 5 4 4 4 4 3 2 1 1 1 2 2 1 1 1 1 2 3 3 3 3 4 5 5 4
11 10 6 4 6 7 4 2 5 4 4 2 3 3 4 4 4 4 5 4 3 3 3 3 2 2 1 1 1 1 2 2 2 2 2 3 2 3 3 4 4 4 5 4
7 8 4 5 5 4 4 4 4 5 4 4 5 5 4 4 3 3 4 3 2 2 3 3 2 2 1 1 1 1 2 2 2 2 4 3 3 3 4 4 5 5 4 3
2 1 3 5 5 5 5 4 3 3 3 3 3 3 3 2 2 3 3 2 2 2 2 2 2 2 1 1 1 1 2 2 2 3 3 4 4 4 4 3 4 4 2 2
1 1 2 5 6 6 5 4 5 3 2 2 2 2 2 2 2 3 3 2 2 2 1 1 2 2 2 2 1 1 2 2 3 3 4 4 3 3 3 3 3 2 2 3
2 2 2 4 5 5 5 5 4 3 3 2 1 2 2 1 2 2 2 1 1 1 2 2 2 2 1 1 1 2 3 3 4 4 4 3 3 3 3 2 2 2 2 2
2 3 3 3 5 5 3 3 3 3 2 2 2 2 1 2 2 1 1 1 1 2 2 1 1 1 1 1 1 2 3 4 4 4 3 3 3 2 2 3 3 4 3 3
3 4 3 3 4 4 3 3 3 2 2 2 2 2 2 2 1 1 1 1 1 1 1 1 2 2 1 1 1 2 3 4 4 4 4 3 3 3 3 2 3 4 5 5
4 3 2 3 3 4 4 3 3 3 2 2 2 2 2 2 1 1 2 1 1 1 2 2 2 2 2 2 2 2 4 4 4 4 4 4 4 4 3 3 2 2 3 5
5 4 2 2 2 3 4 3 2 3 3 3 3 2 2 1 1 1 1 1 1 1 1 2 2 2 2 3 2 3 4 4 3 4 4 4 4 5 4 4 3 2 1 2
3 4 4 3 4 4 3 3 3 2 2 2 1 1 1 1 0 0 1 2 2 2 2 2 3 3 3 3 4 3 3 5 5 4 5 5 5 5 4 4 4 2 2 2
3 3 3 4 4 4 3 3 3 3 2 1 1 1 1 1 0 1 1 2 2 2 2 2 3 4 4 4 5 5 5 3 4 4 4 4 5 5 5 5 4 3 3 2
3 3 3 3 3 3 3 4 4 4 3 2 1 1 1 1 1 1 1 1 2 2 3 3 3 5 5 5 4 5 5 5 4 3 3 3 4 5 5 5 5 4 3 2
3 3 3 3 4 4 4 4 4 4 4 3 1 1 1 1 1 1 2 2 3 3 2 2 3 5 4 3 5 5 5 6 5 4 3 3 4 4 5 5 5 4 4 4
4 4 3 3 3 3 3 3 4 3 4 3 2 2 2 1 1 2 2 2 3 3 3 3 3 4 4 4 5 6 6 5 5 5 4 4 4 4 4 5 4 4 4 4
4 4 4 3 3 3 4 4 3 3 4 4 3 2 2 2 2 3 3 3 3 3 4 4 3 3 4 5 7 6 5 5 5 5 5 5 5 5 5 4 4 4 4 4
4 4 4 4 4 4 4 4 4 3 3 3 4 3 3 3 3 2 3 3 3 4 5 4 3 3 5 7 7 6 6 5 5 4 4 5 5 4 4 4 4 4 4 4
4 4 4 4 4 4 4 4 4 3 3 3 3 4 4 4 3 3 3 2 3 4 5 4 3 3 6 7 7 6 6 5 5 5 4 4 4 4 4 4 4 4 3 3
5 5 4 4 4 4 4 4 4 4 4 4 3 4 4 4 3 3 3 3 3 4 5 3 3 5 6 6 6 5 5 5 5 5 5 5 4 4 4 4 4 3 3 4
5 5 5 4 4 4 4 4 4 4 4 3 3 4 4 4 4 4 4 4 4 4 5 4 6 7 6 5 5 5 5 4 4 5 5 5 4 4 4 4 4 4 3 4
4 3 3 3 3 3 3 3 3 3 3 3 3 4 4 4 5 5 4 5 7 6 6 5 4 5 5 5 5 5 4 4 4 4 4 4 5 4 4 4 5 4 4 3
3 3 3 3 3 3 4 4 4 4 4 4 5 5 5 5 5 5 5 5 5 5 6 5 5 5 4 5 5 4 4 4 5 5 5 4 4 4 4 5 3 3 4 4
Wind_Direction
270 273 270 271 269 264 261 265 270 269 271 254 168 145 140 120 122 134 138 128 120 124 123 121 122 122 111 111 112 123 140 158 173 193 214 218 250 281 278 287 285 280 275 266
277 275 274 267 264 263 262 267 267 271 281 225 137 126 128 131 154 163 153 137 136 139 131 127 126 122 119 121 132 145 161 188 200 210 219 219 247 269 273 285 287 286 284 279
275 279 280 269 269 268 262 265 277 280 282 124 119 118 125 131 137 137 138 133 131 124 120 116 121 125 140 164 168 173 185 217 234 229 241 244 268 269 271 289 299 299 291 281
271 273 266 269 267 274 278 265 276 268 130 124 102 88 81 79 87 107 117 122 121 116 118 123 131 131 158 184 180 196 211 228 233 264 268 267 272 280 289 296 297 294 290 285
261 265 268 274 295 305 290 298 47 118 122 108 101 110 96 76 65 80 110 110 115 123 125 131 135 142 175 206 198 224 246 247 256 262 274 284 291 295 291 287 286 283 280 273
258 264 267 281 329 333 312 265 41 70 88 92 97 162 93 71 67 75 97 103 113 126 130 129 130 146 173 215 241 255 263 278 289 291 287 283 285 284 284 281 280 281 282 276
256 262 270 349 335 319 303 26 30 43 54 52 53 54 95 88 74 86 96 103 107 121 124 126 138 158 193 241 263 286 305 312 319 316 287 273 271 274 273 273 279 281 280 275
254 259 265 360 352 14 43 41 42 47 43 54 73 86 94 97 102 118 115 118 123 122 124 127 149 168 203 264 292 305 306 307 304 294 290 293 279 273 270 269 277 274 270 272
301 350 50 42 46 42 43 30 32 43 51 83 95 110 114 121 133 134 126 116 132 132 129 144 173 187 213 259 284 303 307 309 302 297 292 286 279 280 274 266 268 282 287 292
297 90 56 49 43 36 29 20 12 15 37 75 104 124 138 142 137 136 131 138 159 162 174 187 193 207 215 249 271 297 303 304 295 283 278 284 280 277 284 294 297 310 323 315
333 1 357 35 31 30 30 15 7 8 26 36 92 133 144 143 139 149 151 165 183 178 207 228 230 212 216 246 276 303 299 290 286 282 285 283 276 283 285 278 277 278 290 290
326 348 346 358 5 16 28 351 358 22 33 42 54 71 83 98 114 119 146 199 192 199 227 248 259 258 239 255 286 295 291 290 287 285 285 285 288 291 301 269 256 244 248 256
351 344 351 359 15 5 358 352 6 26 44 53 59 62 51 61 79 74 291 280 238 221 234 249 249 252 269 270 288 295 290 291 291 292 297 295 294 291 290 290 279 274 263 250
9 14 20 15 16 5 7 10 14 21 42 71 81 85 79 57 32 313 276 258 242 237 243 251 254 271 294 284 275 280 282 284 286 292 297 301 302 298 289 283 280 275 261 245
18 21 21 20 30 29 20 14 20 29 42 60 72 82 78 47 339 318 310 300 279 268 269 288 299 309 305 297 290 280 280 283 290 299 298 299 298 298 301 301 290 276 282 284
14 21 23 34 42 29 19 15 15 16 30 48 60 43 329 296 291 28 8 359 336 324 335 334 322 311 307 314 308 284 266 267 273 286 294 300 305 307 310 305 299 294 274 282
16 27 26 20 20 14 5 357 353 348 354 20 17 353 311 304 318 344 346 338 334 339 333 319 313 312 312 313 303 294 292 271 253 276 291 302 309 311 308 304 305 309 312 315
16 20 17 7 356 360 353 350 359 359 348 351 357 344 319 284 283 326 330 326 322 328 325 324 338 323 315 323 319 303 299 295 286 280 290 298 302 303 303 301 301 310 314 303
29 35 31 22 7 9 4 357 359 2 357 355 341 336 343 337 318 307 301 299 302 308 318 330 325 299 306 322 309 293 293 298 296 295 293 282 280 289 296 300 304 310 313 314
28 25 24 18 9 13 12 1 356 3 3 349 345 352 348 341 327 313 309 308 311 310 306 310 300 301 305 311 303 296 296 297 298 297 294 295 292 290 294 297 306 315 316 318
18 4 5 17 17 18 11 2 5 11 9 359 346 338 337 331 324 322 311 310 330 329 306 285 283 304 313 318 297 288 293 297 297 299 301 299 296 292 294 302 308 312 315 314
360 359 10 16 15 17 14 11 9 1 357 346 342 333 321 310 307 311 313 317 328 338 310 300 315 340 331 313 299 299 299 301 305 306 307 305 302 300 298 299 302 307 309 313
353 359 9 11 13 16 12 10 6 352 340 335 331 329 324 320 313 309 311 320 320 325 309 316 335 330 317 303 298 301 307 309 305 305 304 302 306 306 307 305 300 295 299 311
2 2 4 6 3 359 358 357 354 345 341 340 341 341 334 323 317 315 315 309 305 303 302 301 261 271 282 287 293 295 299 303 305 307 304 303 306 309 319 324 321 314 311 311
1 358 358 3 1 358 355 353 357 354 341 344 349 344 333 329 325 327 325 318 309 292 291 277 253 255 266 285 294 299 302 303 308 313 312 309 314 325 328 319 319 323 326 322
352 349 354 351 353 344 341 346 353 344 338 344 345 335 330 331 328 326 321 315 309 298 292 290 281 265 272 285 293 296 298 302 304 298 307 317 323 324 323 326 332 334 334 329
355 356 347 349 348 353 348 344 344 346 347 346 333 327 326 328 325 324 322 317 313 307 305 301 295 290 287 288 291 294 301 309 312 315 315 317 321 326 324 329 335 336 332 330